Regional Weather Roundup
Issued by NWS Albany, NY

Home | Current Version | Previous Version | Text Only | Print | Product List | Glossary On
Versions: 1 2 3 4 5 6 7 8 9 10 11 12 13 14 15 16 17 18 19 20 21 22 23 24 25 26 27 28 29 30 31 32 33 34 35 36 37 38 39 40 41 42 43 44 45 46 47 48 49 50
000
ASUS41 KALY 280510
RWRALY

NEW YORK STATE HOURLY WEATHER ROUNDUP
NATIONAL WEATHER SERVICE ALBANY NY
100 AM EDT THU MAY 28 2015

NOTE: "FAIR" INDICATES FEW OR NO CLOUDS BELOW 12,000 FEET WITH NO
SIGNIFICANT WEATHER AND/OR NO OBSTRUCTIONS TO VISIBILITY.

NYZ032-033-038>043-046>054-057>066-NYZ062>081-280600-
EAST


CITY           SKY/WX    TMP DP  RH WIND       PRES   REMARKS
ALBANY         CLOUDY    68  65  90 S7        30.07F
GLENS FALLS    CLOUDY    68  65  90 S7        30.06S
POUGHKEEPSIE   PTCLDY    65  63  93 CALM      30.10F FOG
NEWBURGH       CLEAR     66  66 100 CALM      30.13S
MONTGOMERY     CLOUDY    63  63 100 N3        30.11F FOG
WHITE PLAINS   PTCLDY    64  61  90 CALM      30.13F
ISLIP          MOCLDY    65  60  84 SW13      30.14F
NEW YORK CITY  MOCLDY    69  62  78 S10       30.12F
CENTRAL PARK   PTCLDY    71  66  84 SW5       30.16S
$$

NYZ005>009-017-018-044>046-055-056-280600-
CENTRAL


CITY           SKY/WX    TMP DP  RH WIND       PRES   REMARKS
FULTON         CLOUDY    66  62  87 S7        30.02F
SYRACUSE       CLOUDY    71  60  68 S7        30.02F
ROME           MOCLDY    68  62  81 W3        30.06S
ELMIRA         PTCLDY    64  59  83 W3        30.08F
BINGHAMTON     CLEAR     66  62  87 S6        30.11F
MONTICELLO     CLOUDY    63  63 100 CALM      30.16F VSB 1/4
$$

NYZ026>034-041>043-280600-
NORTH


CITY           SKY/WX    TMP DP  RH WIND       PRES   REMARKS
WATERTOWN      LGT RAIN  63  59  87 W6        30.00F
FORT DRUM      NOT AVBL
MASSENA        PTCLDY    73  56  54 SW15G25   29.95R
SARANAC LAKE   CLOUDY    63  60  90 SW5       30.04R
PLATTSBURGH    CLEAR     62  60  93 CALM      29.97S
$$

NYZ001>004-010>016-019>021-280600-
WEST


CITY           SKY/WX    TMP DP  RH WIND       PRES   REMARKS
NIAGARA FALLS  CLOUDY    64  57  78 SW16      30.02S
BUFFALO        MOCLDY    67  58  72 SW15G21   30.04R
DUNKIRK        LGT RAIN  64  60  87 S9G23     30.06S
JAMESTOWN      CLOUDY    59  55  88 SW5       30.12S
WELLSVILLE     PTCLDY    61  57  87 SW6       30.14F
ROCHESTER      CLOUDY    66  60  81 SW12      30.02F
PENN YAN       MOCLDY    67  58  72 S9        30.07F
$$

             KEY
       WCI = WIND CHILL INDEX
       VSB = VISIBILITY
       HX  = HEAT INDEX
$$


USA.gov is the U.S. government's official web portal to all federal, state and local government web resources and services.